Location: Christchurch
(43.5330°S, 172.6330°E)
Time: 16:30:35
(UTC+12:00)

SeaSat 1 - Pass Details

Date: 24 January 2019
Orbit: 745 x 747 km, 108.0° (Epoch: 17 April)

Event Time Altitude Azimuth Distance (km) Brightness Sun altitude
Rises 23:36:03 0° 150° (SSE) 3,228 6.1 -21.0°
Reaches altitude 10° 23:38:23 10° 145° (SE) 2,296 5.2 -21.2°
Maximum altitude 23:43:18 56° 66° (ENE) 893 2.5 -21.6°
Enters shadow 23:43:59 52° 34° (NNE) 940 2.5 -21.7°
